Location: Tryon
(41.5533°N, 100.9574°W)
Time: 13:23:26
(UTC-05:00)

ISS - Visible Passes

Search period start: 22 March 2019 00:00
Search period end: 01 April 2019 00:00
Orbit: 406 x 411 km, 51.6° (Epoch: 23 March)

Date Brightness Start Highest point End Pass type
(mag) Time Alt. Az. Time Alt. Az. Time Alt. Az.
22 Mar -3.8 21:19:51 10° WSW 21:23:08 79° NW 21:24:40 29° NE visible
23 Mar -3.7 20:28:53 10° SW 20:32:06 56° SE 20:35:21 10° ENE visible
23 Mar -1.8 22:06:04 10° W 22:08:52 25° NNW 22:09:02 25° NNW visible
24 Mar -2.4 21:14:35 10° W 21:17:39 36° NNW 21:20:26 12° NE visible
24 Mar -0.3 22:52:54 10° NW 22:53:11 11° NW 22:53:11 11° NW visible
25 Mar -3.2 20:23:14 10° WSW 20:26:29 59° NNW 20:29:45 10° NE visible
25 Mar -1.3 22:01:15 10° WNW 22:03:34 17° NNW 22:04:26 16° N visible
26 Mar -1.5 21:09:36 10° WNW 21:12:15 22° NNW 21:14:53 10° NE visible
26 Mar -0.5 22:47:50 10° NNW 22:48:18 12° NNW 22:48:18 12° NNW visible
27 Mar -1.2 21:56:23 10° NW 21:58:19 14° N 21:59:21 13° NNE visible
28 Mar -1.2 21:04:45 10° NW 21:06:55 16° N 21:09:04 10° NNE visible
28 Mar -0.7 22:42:18 10° NNW 22:43:03 13° NNW 22:43:03 13° NNW visible
29 Mar -1.3 21:51:07 10° NNW 21:53:03 14° N 21:53:58 13° NNE visible
30 Mar -1.2 20:59:43 10° NW 21:01:37 14° N 21:03:29 10° NNE visible
30 Mar -1.0 22:36:26 10° NW 22:37:35 16° NNW 22:37:35 16° NNW visible
31 Mar -1.6 21:45:23 10° NNW 21:47:41 17° NNE 21:48:27 16° NNE visible
